Date,TemperatureHighF,TemperatureAvgF,TemperatureLowF,DewpointHighF,DewpointAvgF,DewpointLowF,HumidityHigh,HumidityAvg,HumidityLow,PressureMaxIn,PressureMinIn,WindSpeedMaxMPH,WindSpeedAvgMPH,GustSpeedMaxMPH,PrecipitationSumIn
2013-6-9,75,46,70,58,-3,-100,62,34,50,30.16,30.07,7,-379,11,0.02
2013-6-10,69,38,59,61,-8,-100,93,45,65,30.19,30.00,3,-416,11,0.11
2013-6-11,61,22,54,58,-42,-100,98,35,88,30.00,29.59,6,-627,11,0.00
2013-6-12,69,35,57,56,-14,-100,91,40,60,29.83,29.56,12,-440,23,0.00
2013-6-13,65,26,53,57,-32,-100,95,38,66,29.82,29.70,5,-558,11,0.52
2013-6-14,75,34,52,59,-21,-100,98,36,45,29.78,29.67,5,-485,11,0.01
2013-6-15,75,41,58,51,-13,-100,67,27,33,29.93,29.79,7,-402,15,0.00
2013-6-16,73,39,60,61,-12,-100,69,34,53,29.94,29.70,9,-430,12,0.00
2013-6-17,81,33,63,65,-27,-100,87,30,49,29.89,29.76,10,-548,16,0.01
2013-6-18,75,28,60,65,-31,-100,95,36,70,29.94,29.86,10,-571,14,0.00
2013-6-19,77,49,54,55,12,-100,88,43,36,30.15,29.91,6,-254,11,0.02
2013-6-20,76,63,48,58,47,-100,95,62,40,30.25,30.15,8,-20,11,0.00
2013-6-21,81,46,60,65,-1,-100,82,38,41,30.23,30.16,9,-375,13,0.00
2013-6-22,81,44,63,66,-6,-100,84,37,51,30.20,30.09,10,-417,14,0.00
2013-6-23,86,48,66,73,1,-100,82,41,60,30.13,29.96,11,-393,16,0.00
2013-6-24,89,45,71,74,-7,-100,91,37,56,29.99,29.85,6,-453,12,0.00
2013-6-25,87,46,70,72,-4,-100,82,38,56,29.90,29.70,10,-430,13,0.00
2013-6-26,80,55,68,71,23,-100,95,58,70,29.84,29.70,7,-260,12,0.00
2013-6-27,73,45,64,68,6,-100,98,60,85,29.85,29.74,1,-346,11,0.01
2013-6-28,77,10,58,74,-77,-100,99,13,88,29.75,29.47,5,-860,11,0.00
2013-6-29,81,44,69,71,-3,-100,97,45,65,29.70,29.49,11,-418,19,0.00
2013-6-30,84,56,69,73,24,-100,95,58,62,29.91,29.69,11,-264,14,0.00
2013-7-1,80,73,70,74,71,69,98,94,80,30.05,29.91,5,2,11,1.44
2013-7-2,82,73,62,74,70,61,97,90,76,30.19,30.05,8,3,12,0.00
2013-7-3,84,73,61,75,69,60,98,87,69,30.19,30.12,9,4,17,0.00
2013-7-4,88,80,73,76,73,71,94,80,62,30.19,30.07,8,6,15,0.00
2013-7-5,89,82,74,76,73,71,93,77,60,30.14,30.01,9,5,14,0.00
2013-7-6,86,80,73,74,71,65,91,77,58,30.06,29.96,7,4,13,0.00
2013-7-7,88,77,69,76,70,64,92,79,61,30.01,29.90,6,3,11,0.01
2013-7-8,86,77,69,74,71,67,95,83,61,30.04,29.88,6,2,11,0.00
2013-7-9,75,69,64,70,66,64,98,92,80,30.10,30.02,3,0,11,0.01
2013-7-10,83,72,65,76,70,64,98,93,75,30.06,29.77,12,2,16,0.10
2013-7-11,82,75,71,73,71,63,96,87,70,29.92,29.75,7,3,11,0.01
2013-7-12,79,71,66,65,60,57,78,68,49,30.19,29.92,7,3,14,0.00
2013-7-13,75,69,64,71,65,57,98,85,73,30.30,30.19,4,1,11,0.03
2013-7-14,88,78,70,76,72,69,98,82,57,30.29,30.19,8,2,11,0.01
2013-7-15,94,82,73,76,71,67,89,71,50,30.19,30.08,4,2,11,0.00
2013-7-16,95,82,73,72,68,65,87,65,43,30.14,30.09,7,3,11,0.00
2013-7-17,90,82,73,75,71,67,89,70,52,30.16,29.98,8,2,13,0.00
2013-7-18,95,83,74,77,73,70,90,74,47,29.99,29.90,9,3,13,0.00
2013-7-19,92,83,73,78,74,70,91,74,55,29.93,29.69,11,5,16,0.00
2013-7-20,87,80,71,76,72,62,89,76,61,29.79,29.64,8,4,12,0.03
2013-7-21,87,76,67,70,65,61,92,71,52,29.97,29.79,6,1,11,0.00
2013-7-22,86,72,64,72,66,63,97,85,61,30.01,29.87,3,1,11,0.00
2013-7-23,82,69,67,77,68,65,99,96,82,29.87,29.53,6,1,11,1.68
2013-7-24,80,74,62,69,63,54,75,68,60,29.96,29.68,7,4,12,0.00
2013-7-25,62,59,56,58,53,48,95,83,71,30.11,29.96,7,2,11,0.04
2013-7-26,72,64,59,67,61,57,97,90,78,30.07,29.95,8,5,14,0.50
2013-7-27,81,70,61,67,62,58,92,77,52,30.04,29.97,6,3,11,0.00
2013-7-28,84,72,62,72,65,60,97,82,56,30.01,29.94,3,0,11,0.00
2013-7-29,87,73,66,74,66,60,98,81,54,30.03,29.93,6,2,11,0.00
2013-7-30,79,70,61,61,58,54,78,65,50,30.09,30.03,7,3,11,0.00
2013-7-31,81,71,62,66,60,57,85,69,48,30.14,30.02,5,2,11,0.00
2013-8-1,78,68,61,67,63,59,96,85,66,30.03,29.86,8,3,14,0.07
2013-8-2,79,69,63,67,62,57,98,81,49,29.87,29.79,9,3,13,0.63
2013-8-3,76,69,63,64,60,53,90,76,61,29.85,29.77,8,4,12,0.00
2013-8-4,78,66,58,60,56,52,86,69,50,29.90,29.76,9,4,11,0.00
2013-8-5,75,63,55,53,48,42,85,61,35,30.05,29.89,9,4,18,0.00
2013-8-6,82,67,54,60,52,46,87,61,40,30.14,30.05,4,1,11,0.00
2013-8-7,79,68,59,62,57,52,92,71,43,30.17,30.09,7,3,12,0.00
2013-8-8,80,71,64,72,67,59,96,88,75,30.10,29.99,8,5,12,0.03
2013-8-9,75,72,70,73,70,68,98,95,91,30.00,29.74,9,4,14,1.09
2013-8-10,78,71,63,70,60,52,96,71,48,30.01,29.79,10,5,14,0.00
2013-8-11,77,67,59,60,55,51,79,66,47,30.08,29.99,5,3,11,0.00
2013-8-12,79,69,61,65,59,56,87,71,47,30.02,29.91,5,2,11,0.00
2013-8-13,74,68,65,68,64,60,95,88,78,29.91,29.67,5,2,11,0.11
2013-8-14,70,63,57,64,54,49,94,74,57,29.98,29.66,13,7,18,0.00
2013-8-15,73,63,55,55,52,49,87,69,50,30.11,29.98,7,4,11,0.00
2013-8-16,79,66,56,60,54,51,85,67,47,30.19,30.10,6,3,11,0.00
2013-8-17,85,70,60,68,58,54,82,67,42,30.27,30.19,4,2,11,0.00
2013-8-18,78,68,60,67,61,56,92,78,56,30.26,30.07,6,2,11,0.00
2013-8-19,78,70,62,65,61,58,89,75,56,30.08,29.95,7,4,12,0.00
2013-8-20,85,73,66,67,62,59,80,67,46,30.08,29.97,7,4,11,0.00
2013-8-21,84,75,68,68,64,60,83,68,49,30.13,30.01,6,3,11,0.00
2013-8-22,83,74,66,72,67,63,92,78,59,30.02,29.81,10,5,13,0.00
2013-8-23,81,71,62,69,58,50,92,66,41,30.12,29.81,7,4,12,0.00
2013-8-24,84,68,57,60,50,46,72,55,28,30.32,30.13,5,2,11,0.00
2013-8-25,78,70,60,60,54,49,76,60,37,30.36,30.17,6,3,11,0.00
2013-8-26,76,70,63,67,62,56,93,78,69,30.17,29.85,11,5,17,0.03
2013-8-27,91,75,67,71,68,65,97,80,46,29.89,29.81,5,1,11,0.08
2013-8-28,89,75,67,70,66,62,89,75,47,29.95,29.83,3,1,11,0.00
2013-8-29,67,63,60,64,62,58,98,95,89,30.07,29.92,6,2,12,0.03
2013-8-30,81,69,58,69,64,57,97,85,65,30.04,29.81,7,3,11,0.00
2013-8-31,80,74,70,74,70,67,95,90,79,29.82,29.76,9,5,13,0.01
2013-9-1,79,73,68,74,70,66,97,92,84,29.87,29.77,8,3,12,0.06
2013-9-2,78,72,70,75,71,69,98,95,88,29.84,29.69,6,2,11,0.18
2013-9-3,79,70,62,70,66,57,98,86,72,29.80,29.68,11,3,11,0.01
2013-9-4,77,67,59,60,57,52,92,72,44,29.91,29.79,10,5,12,0.00
2013-9-5,72,63,54,60,52,41,92,69,39,30.16,29.85,7,4,11,0.01
2013-9-6,68,57,48,48,42,38,82,59,36,30.25,30.09,5,2,11,0.00
2013-9-7,76,63,51,58,51,44,81,64,40,30.09,29.85,7,3,11,0.00
2013-9-8,71,62,51,61,52,40,92,70,40,30.11,29.75,8,4,13,0.00
2013-9-9,66,57,47,50,44,38,85,64,45,30.24,30.10,8,3,11,0.00
2013-9-10,74,65,54,69,62,50,97,90,83,30.14,30.02,13,6,17,0.06
2013-9-11,91,80,69,76,72,67,97,80,53,30.05,29.92,12,5,16,0.00
2013-9-12,84,75,66,75,69,64,97,83,66,29.94,29.64,13,6,21,0.75
2013-9-13,75,66,57,68,62,53,97,87,71,29.77,29.56,6,2,11,0.04
2013-9-14,66,57,52,54,51,49,93,81,63,30.06,29.76,7,4,11,0.02
2013-9-15,68,58,49,53,49,44,92,74,45,30.17,30.05,6,2,11,0.00
2013-9-16,67,57,44,54,49,36,88,75,60,30.28,30.01,8,4,12,0.00
2013-9-17,69,52,41,47,39,34,81,63,37,30.44,30.28,8,3,14,0.00
2013-9-18,71,59,48,51,45,41,83,63,38,30.34,30.13,9,2,12,0.00
2013-9-19,82,66,53,56,51,46,81,60,38,30.14,30.02,7,2,11,0.00
2013-9-20,83,68,54,59,54,50,89,63,35,30.08,29.98,5,2,11,0.00
2013-9-21,73,64,54,64,59,53,97,85,69,30.01,29.70,13,7,16,0.01
2013-9-22,68,61,50,65,54,44,96,80,57,29.86,29.58,11,5,18,0.60
2013-9-23,61,51,44,45,42,38,84,72,55,30.04,29.85,7,4,13,0.00
2013-9-24,66,52,40,45,41,38,92,68,39,30.02,29.83,8,4,15,0.00
2013-9-25,73,58,50,54,48,43,86,69,48,29.99,29.86,6,3,12,0.00
2013-9-26,72,59,52,53,49,45,89,71,44,30.13,29.98,4,1,11,0.00
2013-9-27,69,58,54,55,51,49,92,78,59,30.27,30.13,6,2,11,0.00
2013-9-28,78,63,53,56,52,48,85,70,45,30.33,30.26,5,2,11,0.00
2013-9-29,73,58,47,55,48,41,96,74,32,30.27,30.12,3,0,11,0.00
2013-9-30,76,58,43,54,48,42,96,75,43,30.14,29.97,3,1,11,0.00
2013-10-1,78,65,50,58,54,47,90,68,43,29.97,29.84,7,3,12,0.00
2013-10-2,76,67,54,62,57,51,93,72,57,29.96,29.83,8,4,18,0.00
2013-10-3,76,65,58,55,51,47,77,62,39,30.08,29.95,7,3,11,0.00
2013-10-4,66,60,56,59,52,43,95,75,47,30.09,30.03,5,1,11,0.07
2013-10-5,71,61,57,60,57,55,95,86,68,30.12,30.06,4,0,11,0.05
2013-10-6,59,54,51,58,53,50,98,97,95,30.24,30.11,4,1,11,0.38
2013-10-7,75,61,53,70,59,52,99,94,77,30.15,29.78,16,5,26,0.40
2013-10-8,66,55,48,52,43,36,87,66,38,30.40,29.90,9,4,15,0.00
2013-10-9,64,51,43,47,42,36,92,71,50,30.50,30.39,5,2,11,0.00
2013-10-10,60,51,43,51,46,41,95,85,70,30.39,30.20,3,1,11,0.00
2013-10-11,73,58,49,55,45,35,91,65,26,30.20,30.10,5,2,11,0.00
2013-10-12,55,53,50,54,50,46,97,91,74,30.42,30.15,6,3,15,0.00
2013-10-13,57,50,44,50,47,42,100,89,74,30.46,30.40,4,1,11,0.00
2013-10-14,70,53,42,48,44,41,97,74,38,30.43,30.24,4,2,11,0.01
2013-10-15,72,59,51,56,51,46,93,77,57,30.27,30.17,4,1,11,0.00
2013-10-16,60,54,50,53,50,48,98,88,66,30.19,29.93,2,0,11,0.00
2013-10-17,71,61,50,59,55,48,96,82,54,29.92,29.71,11,4,13,0.01
2013-10-18,62,58,48,60,49,39,97,74,53,29.93,29.59,12,5,15,0.02
2013-10-19,65,54,44,47,42,39,82,65,43,29.99,29.74,7,3,12,0.00
2013-10-20,58,52,45,50,40,33,92,66,40,30.04,29.69,11,5,15,0.01
2013-10-21,65,53,44,43,39,35,76,60,40,30.13,29.99,8,4,17,0.00
2013-10-22,62,52,44,51,44,34,95,77,61,29.99,29.72,12,5,18,0.00
2013-10-23,51,45,38,35,33,31,84,65,51,29.83,29.61,6,2,11,0.00
2013-10-24,50,43,37,35,30,25,79,60,39,29.92,29.67,10,5,20,0.00
2013-10-25,48,40,34,35,30,26,88,68,45,30.19,29.92,8,3,13,0.00
2013-10-26,44,37,34,34,31,28,85,79,62,30.19,30.11,7,4,11,0.00
2013-10-27,51,47,39,36,32,29,71,56,44,30.10,29.87,11,6,15,0.00
2013-10-28,56,43,35,36,32,23,81,64,42,30.39,30.10,11,5,17,0.00
2013-10-29,50,38,31,24,20,14,69,49,30,30.49,30.39,4,1,11,0.00
2013-10-30,52,42,35,41,32,21,91,67,49,30.41,30.21,5,2,11,0.00
2013-10-31,59,50,38,58,48,37,97,95,87,30.26,29.79,10,3,15,0.33
2013-11-1,66,61,56,62,57,50,96,86,73,29.78,29.45,17,10,24,0.20
2013-11-2,64,54,46,50,43,41,86,69,45,29.75,29.60,7,2,11,0.00
2013-11-3,48,40,30,44,26,14,89,62,27,30.48,29.75,9,5,16,0.00
2013-11-4,47,34,27,21,16,14,67,50,27,30.76,30.48,7,3,12,0.00
2013-11-5,51,39,28,36,28,21,82,66,46,30.77,30.53,7,2,11,0.00
2013-11-6,58,49,39,47,42,34,90,75,56,30.53,30.04,13,7,19,0.00
2013-11-7,61,55,45,56,51,43,91,87,79,30.04,29.70,13,8,20,0.06
2013-11-11,49,44,36,31,28,25,68,54,40,30.13,29.91,9,5,13,0.00
2013-11-12,46,33,25,36,24,15,91,69,53,30.26,29.90,12,5,14,0.03
2013-11-13,34,27,22,18,14,10,75,60,40,30.37,30.21,8,4,13,0.00
2013-11-14,48,39,29,25,20,17,62,47,36,30.21,30.06,11,7,19,0.00
2013-11-15,60,48,40,27,18,12,46,31,15,30.22,30.10,12,6,17,0.00
2013-11-16,62,49,42,38,29,23,78,46,29,30.33,30.19,5,2,11,0.00
2013-11-17,46,43,39,44,39,34,97,88,78,30.33,29.88,2,0,11,0.04
2013-11-18,62,54,45,59,44,31,98,71,46,29.87,29.54,11,6,22,0.22
2013-11-19,45,36,28,31,22,16,65,55,45,30.35,29.69,14,7,18,0.00
2013-11-20,44,32,25,17,14,9,67,49,26,30.70,30.36,8,4,11,0.00
2013-11-21,45,36,26,32,20,10,73,52,34,30.72,30.40,9,3,13,0.00
2013-11-22,46,42,40,45,40,32,97,92,75,30.40,29.84,7,2,11,0.10
2013-11-23,48,37,26,45,26,16,95,66,44,29.97,29.80,17,8,28,0.00
2013-11-24,26,20,17,19,5,-4,88,53,28,30.30,29.87,15,10,30,0.00
2013-11-25,31,23,14,16,5,-4,58,47,27,30.46,30.30,11,6,17,0.00
2013-11-26,36,32,26,31,22,13,95,70,49,30.39,30.09,10,3,14,0.12
2013-11-27,60,44,32,60,43,30,98,94,84,30.09,29.26,14,6,20,1.97
2013-11-28,34,27,21,30,16,8,86,62,43,30.52,29.50,15,8,25,0.00
2013-11-29,31,24,18,16,11,4,81,59,39,30.84,30.52,9,3,13,0.00
2013-11-30,32,24,15,21,12,5,75,60,44,30.91,30.49,5,2,11,0.00
2013-12-1,36,32,27,35,29,21,97,90,75,30.49,30.07,5,1,11,0.05
2013-12-2,38,36,35,38,36,34,98,97,97,30.07,29.96,4,1,11,0.00
2013-12-3,50,38,31,39,34,30,98,85,57,30.00,29.88,6,2,11,0.01
2013-12-4,44,36,31,31,28,26,92,74,53,30.24,30.01,10,2,17,0.00
2013-12-5,54,38,34,53,35,29,98,89,68,30.25,29.92,10,2,15,0.01
2013-12-6,55,46,33,54,42,31,100,89,72,30.20,29.87,12,4,15,0.19
2013-12-7,35,31,25,31,26,17,95,82,68,30.54,30.13,11,3,16,0.14
2013-12-8,28,25,20,19,16,14,83,70,58,30.67,30.53,4,1,11,0.00
2013-12-9,35,29,22,34,27,17,97,92,72,30.57,29.95,7,2,11,0.01
2013-12-10,35,30,22,32,25,14,93,82,69,30.08,29.84,10,4,14,0.01
2013-12-11,28,23,19,20,17,14,83,76,63,30.27,30.08,11,6,23,0.00
2013-12-12,23,18,12,18,7,1,84,63,41,30.37,30.17,10,4,15,0.00
2013-12-13,26,18,11,18,11,6,85,72,64,30.50,30.10,10,5,19,0.00
2013-12-14,14,10,8,12,3,-4,90,72,47,30.73,30.29,7,3,12,0.00
2013-12-15,27,22,14,25,18,11,93,87,73,30.28,29.55,14,6,21,0.00
2013-12-16,25,21,14,20,10,4,86,64,48,30.30,29.82,12,6,18,0.00
2013-12-17,17,10,2,15,5,-1,91,83,63,30.42,30.08,10,3,14,0.00
2013-12-18,30,24,17,20,19,15,92,79,65,30.16,29.97,10,5,14,0.05
2013-12-19,39,32,22,26,23,18,86,68,54,30.18,30.00,12,6,15,0.09
2013-12-20,51,42,34,34,30,26,74,64,49,30.16,29.92,11,4,15,0.30
2013-12-21,57,48,40,47,40,32,89,75,64,29.98,29.86,11,6,13,0.00
2013-12-22,52,40,32,51,39,31,98,96,89,30.08,29.81,9,2,12,0.03
2013-12-23,40,33,31,39,32,30,98,97,90,30.15,30.03,11,2,14,0.48
2013-12-24,36,30,22,33,21,12,89,70,51,30.29,30.11,12,4,14,0.00
2013-12-25,26,17,11,13,5,1,69,58,38,30.65,30.29,10,3,13,0.00
2013-12-26,30,23,16,27,17,5,91,78,63,30.60,30.16,12,2,16,0.00
2013-12-27,31,27,21,22,20,17,88,75,62,30.35,30.26,10,4,11,0.03
2013-12-28,44,36,28,30,26,21,81,68,52,30.28,30.02,12,6,17,0.01
2013-12-29,44,38,33,37,31,28,97,77,58,30.06,29.51,11,5,15,1.24
2013-12-30,39,30,15,34,22,8,95,73,43,30.27,29.59,12,6,18,0.03
2013-12-31,23,16,8,15,8,3,86,70,48,30.28,30.09,7,2,17,0.00
2014-1-1,24,19,13,12,8,4,76,62,49,30.48,30.28,9,3,12,0.00
2014-1-2,18,9,-1,14,6,-4,90,86,77,30.45,30.05,12,6,21,0.00